Weather History for Cullman, AL

Change the Weather History Date:

Thursday, October 6, 2011

  Actual Average (KHSV) Record (KHSV)
Temperature  
Mean Temperature 64 °F 66 °F  
Max Temperature 79 °F 78 °F 95 °F (1941)
Min Temperature 50 °F 54 °F 38 °F (1964)
Degree Days  
Heating Degree Days 0 2  
Month to date heating degree days 12  
Since 1 July heating degree days 25  
Cooling Degree Days 0 3  
Month to date cooling degree days 24  
Year to date cooling degree days 1894  
Growing Degree Days 14 (Base 50)    
Moisture  
Dew Point 55 °F    
Average Humidity 75    
Maximum Humidity 100    
Minimum Humidity 38    
Precipitation  
Precipitation 0.00 in 0.11 in 2.60 in (1910)
Month to date precipitation 0.67  
Year to date precipitation 40.71  
Snow  
Snow 0.00 in - - ()
Month to date snowfall  
Since 1 July snowfall  
Since 1 September snowfall  
Snow Depth -    
Sea Level Pressure  
Sea Level Pressure 30.25 in    
Wind  
Wind Speed 3 mph (East)    
Max Wind Speed 10 mph    
Max Gust Speed -    
Visibility 10 miles    
Events      
T = Trace of Precipitation, MM = Missing Value Source: NWS Daily Summary

Daily Weather History Graph

Daily Weather History Graph

Search for Another Location

Airport:

Trip Planner

Search our weather history database for the weather conditions in past years. The results will help you decide how hot, cold, wet, or windy it might be!

Date:

Astronomy

Oct. 06, 2011 Rise Set
Actual Time 6:45 AM CDT 6:25 PM CDT
Civil Twilight 6:20 AM CDT 6:50 PM CDT
Nautical Twilight 5:51 AM CDT 7:19 PM CDT
Astronomical Twilight 5:22 AM CDT 7:48 PM CDT
Moon 3:27 PM CDT (10/6) 1:46 AM CDT (10/6)
Length of Visible Light 12h 29m
Length of Day
11h 39m
Waxing Gibbous, 75% of the Moon is Illuminated
Oct 6
Waxing Gibbous
Oct 11
Full
Oct 19
Last Quarter
Oct 26
New
Nov 2
First Quarter

Hourly Weather History & Observations

Time (CDT) Temp. Dew Point Humidity Pressure Visibility Wind Dir Wind Speed Gust Speed Precip Events Conditions
12:15 AM 53.2 °F 53.4 °F 100% 30.22 in 10.0 mi Calm Calm - N/A   Clear
12:35 AM 53.4 °F 53.4 °F 100% 30.22 in 10.0 mi Calm Calm - N/A   Clear
12:55 AM 53.6 °F 53.6 °F 100% 30.22 in 10.0 mi Calm Calm - N/A   Clear
1:15 AM 52.3 °F 52.3 °F 100% 30.22 in 10.0 mi Calm Calm - N/A   Clear
1:35 AM 50.9 °F 51.1 °F 100% 30.21 in 10.0 mi Calm Calm - N/A   Clear
1:55 AM 51.6 °F 51.8 °F 100% 30.22 in 10.0 mi Calm Calm - N/A   Clear
2:15 AM 50.9 °F 51.1 °F 100% 30.22 in 10.0 mi Calm Calm - N/A   Clear
2:35 AM 50.9 °F 51.1 °F 100% 30.22 in 10.0 mi Calm Calm - N/A   Clear
2:55 AM 50.9 °F 51.1 °F 100% 30.22 in 10.0 mi NE 3.5 mph - N/A   Clear
3:15 AM 50.9 °F 51.1 °F 100% 30.21 in 10.0 mi NE 3.5 mph - N/A   Clear
3:35 AM 51.1 °F 51.3 °F 100% 30.21 in 10.0 mi NE 4.6 mph - N/A   Clear
3:55 AM 52.5 °F 52.5 °F 100% 30.21 in 10.0 mi NE 4.6 mph - N/A   Clear
4:35 AM 53.8 °F 54.0 °F 100% 30.22 in 10.0 mi NE 3.5 mph - N/A   Clear
4:55 AM 53.6 °F 53.6 °F 100% 30.22 in 10.0 mi NE 3.5 mph - N/A   Clear
5:15 AM 53.6 °F 53.6 °F 100% 30.22 in 10.0 mi ENE 4.6 mph - N/A   Clear
5:35 AM 54.1 °F 54.1 °F 100% 30.23 in 10.0 mi NNE 3.5 mph - N/A   Clear
5:55 AM 55.2 °F 55.6 °F 100% 30.23 in 10.0 mi NE 3.5 mph - N/A   Clear
6:15 AM 54.1 °F 54.1 °F 100% 30.24 in 10.0 mi NE 4.6 mph - N/A   Clear
6:35 AM 53.6 °F 53.6 °F 100% 30.24 in 10.0 mi NE 4.6 mph - N/A   Clear
6:55 AM 54.9 °F 55.0 °F 100% 30.25 in 10.0 mi NE 5.8 mph - N/A   Clear
7:15 AM - - N/A% 30.26 in 10.0 mi NE 4.6 mph - N/A   Clear
7:35 AM 57.4 °F 57.6 °F 100% 30.26 in 10.0 mi NE 4.6 mph - N/A   Clear
7:55 AM 61.3 °F 60.1 °F 96% 30.26 in 10.0 mi ENE 4.6 mph - N/A   Clear
8:15 AM 65.7 °F 62.1 °F 88% 30.27 in 10.0 mi Calm Calm - N/A   Clear
8:55 AM 66.9 °F 61.2 °F 82% 30.29 in 10.0 mi ESE 4.6 mph - N/A   Clear
9:15 AM 69.4 °F 61.2 °F 75% 30.29 in 10.0 mi SE 5.8 mph - N/A   Clear
9:35 AM 71.1 °F 60.4 °F 69% 30.30 in 10.0 mi ESE 6.9 mph - N/A   Clear
9:55 AM 71.1 °F 58.5 °F 64% 30.30 in 10.0 mi SE 6.9 mph - N/A   Clear
10:15 AM 71.8 °F 57.9 °F 62% 30.31 in 10.0 mi SE 5.8 mph - N/A   Clear
10:35 AM 73.4 °F 57.2 °F 57% 30.31 in 10.0 mi ESE 9.2 mph - N/A   Clear
10:55 AM 73.4 °F 56.5 °F 55% 30.31 in 10.0 mi SSE 5.8 mph - N/A   Clear
11:15 AM 75.6 °F 57.0 °F 52% 30.30 in 10.0 mi SSE 5.8 mph - N/A   Clear
11:35 AM 76.1 °F 56.7 °F 51% 30.30 in 10.0 mi ESE 8.1 mph - N/A   Clear
11:55 AM 76.1 °F 55.2 °F 48% 30.29 in 10.0 mi SSE 9.2 mph - N/A   Clear
12:15 PM 76.6 °F 52.9 °F 43% 30.29 in 10.0 mi East 10.4 mph - N/A   Clear
12:35 PM 77.9 °F 53.1 °F 42% 30.28 in 10.0 mi SE 5.8 mph - N/A   Clear
12:55 PM 78.4 °F 52.5 °F 40% 30.27 in 10.0 mi SE 9.2 mph - N/A   Clear
1:15 PM 78.8 °F 53.1 °F 41% 30.26 in 10.0 mi SE 5.8 mph - N/A   Clear
1:35 PM 78.8 °F 52.3 °F 40% 30.26 in 10.0 mi SSE 4.6 mph - N/A   Clear
1:55 PM 79.3 °F 51.8 °F 38% 30.25 in 10.0 mi SE 3.5 mph - N/A   Clear
2:15 PM 79.5 °F 51.8 °F 38% 30.25 in 10.0 mi ESE 6.9 mph - N/A   Clear
2:35 PM 79.7 °F 52.2 °F 38% 30.24 in 10.0 mi SSE 6.9 mph - N/A   Clear
3:15 PM 79.7 °F 52.9 °F 39% 30.24 in 10.0 mi ESE 6.9 mph - N/A   Clear
3:35 PM 79.7 °F 53.2 °F 40% 30.24 in 10.0 mi ESE 4.6 mph - N/A   Clear
3:55 PM 79.3 °F 53.1 °F 40% 30.24 in 10.0 mi ESE 5.8 mph - N/A   Clear
4:15 PM 79.0 °F 52.9 °F 40% 30.24 in 10.0 mi East 3.5 mph - N/A   Clear
4:35 PM 78.4 °F 53.1 °F 41% 30.24 in 10.0 mi ESE 3.5 mph - N/A   Clear
4:55 PM 78.4 °F 53.8 °F 42% 30.23 in 10.0 mi ESE 4.6 mph - N/A   Clear
5:15 PM 77.5 °F 53.6 °F 43% 30.24 in 10.0 mi ESE 4.6 mph - N/A   Clear
5:35 PM 76.5 °F 52.9 °F 44% 30.24 in 10.0 mi Calm Calm - N/A   Clear
5:55 PM 75.2 °F 54.9 °F 49% 30.24 in 10.0 mi Calm Calm - N/A   Clear
6:15 PM 72.1 °F 58.3 °F 62% 30.24 in 10.0 mi Calm Calm - N/A   Clear
6:35 PM 67.3 °F 60.6 °F 79% 30.26 in 10.0 mi Calm Calm - N/A   Clear
6:55 PM 65.3 °F 62.6 °F 91% 30.26 in 10.0 mi Calm Calm - N/A   Clear
7:15 PM 62.1 °F 61.5 °F 98% 30.26 in 10.0 mi Calm Calm - N/A   Clear
7:35 PM 61.0 °F 61.2 °F 100% 30.26 in 10.0 mi Calm Calm - N/A   Clear
7:55 PM 59.5 °F 59.7 °F 100% 30.27 in 10.0 mi ENE 3.5 mph - N/A   Clear
8:15 PM 59.4 °F 59.5 °F 100% 30.27 in 10.0 mi ENE 3.5 mph - N/A   Clear
8:35 PM 60.3 °F 60.4 °F 100% 30.28 in 10.0 mi NE 3.5 mph - N/A   Clear
9:35 PM 59.2 °F 58.6 °F 98% 30.29 in 10.0 mi ENE 3.5 mph - N/A   Clear
9:55 PM 59.4 °F 58.8 °F 98% 30.29 in 10.0 mi Calm Calm - N/A   Clear
10:15 PM 61.3 °F 59.4 °F 93% 30.29 in 10.0 mi Calm Calm - N/A   Clear
10:35 PM 65.1 °F 60.6 °F 85% 30.29 in 10.0 mi ESE 3.5 mph - N/A   Clear
10:55 PM 66.2 °F 55.9 °F 69% 30.29 in 10.0 mi ESE 3.5 mph - N/A   Clear
11:15 PM 66.2 °F 53.4 °F 63% 30.29 in 10.0 mi East 3.5 mph - N/A   Clear
11:35 PM 66.2 °F 54.1 °F 65% 30.29 in 10.0 mi East 3.5 mph - N/A   Clear
11:55 PM 66.2 °F 54.7 °F 66% 30.29 in 10.0 mi East 3.5 mph - N/A   Clear